FENGYUN 1C DEB

Satellite information

Favourite Embed

Satellite Type and Status

DEBRISIN ORBIT

Key statistics

Satellite FENGYUN 1C DEB at a glance.

Uptime

9618

Days in orbit

Revolutions

≈ 14.0

Per day

Orbit

SSO

Sun Synchronous Orbit

Inclination

97.8

Latest

Satellite identification and parameters

Extended collection of information and parameters for FENGYUN 1C DEB.

Object identification

Identified? True

Debris? True

Object name: FENGYUN 1C DEB

International designator: 1999-025CWZ

Object number (NORAD): 32308

Object ID (CCSDS): 32308

Country: PEOPLES REPUBLIC OF CHINA (PRC)

Current information (Y/N): Y

RCS size: SMALL

Orbital parameters

Period: 102.506 minutes

Inclination: 97.7798 deg

SMA: 7255.349 km

Apoapsis: 955.884 km

Periapsis: 798.545 km

RAAN: 315.0163 deg

Eccentricy: 0.01084296

Argument of periapsis: 344.3219 deg

Mean anomaly: 15.4603 deg

Mean motion: 14.0480246 rev/day

Mean motion (dot): 0.00002473 rev/day2

B* drag term: 0.001483441 1/REarth

Two-line elements (TLE)

Creation date: Sept. 5, 2025, 10:27 a.m.

Reference frame: TEME

Reference center: EARTH

Epoch: Sept. 5, 2025, 3:35 a.m. UTC

TLE line 0: 0 FENGYUN 1C DEB

TLE line 1: 1 32308U 99025CWZ 25248.14982258 .00002473 00000-0 14834-2 0 9999

TLE line 2: 2 32308 97.7798 315.0163 0108430 344.3219 15.4603 14.04802460640273

Live tracking on map

Real-time ground track for satellite FENGYUN 1C DEB.

In-orbit conjunctions

A list of the most updated potential collisions computed for object FENGYUN 1C DEB.

Target Orbit TCA Probability of collision Miss distance Type
COSMOS 1104 LEO 2024-09-26 04:47:56 0.0004903113 534.0 (m) PAYLOAD
CZ-6A R/B LEO 2024-09-18 22:45:08 0.0001198253 311.0 (m) ROCKET BODY
COSMOS 1263 LEO 2024-06-06 11:49:38 0.000147829 292.0 (m) PAYLOAD

Associated space launch

Chinese polar orbiting meteorological satellite

FENGYUN 1C DEB was lifted into orbit during the mission ‘Long March 4B | Feng Yun 1C’, on board a Long March 4B space rocket.

The launch took place on May 10, 1999, 1:33 a.m. from Launch Complex 7.

For more information about the launch, click the button.

Launch to space Long March 4B | Feng Yun 1C
Long March 4B | Feng Yun 1C

Agency: N/A

Status: Launch Successful

Launch date: May 10, 1999, 1:33 a.m. UTC

Rocket: Long March 4B

Launch pad: Launch Complex 7

Location: Taiyuan Satellite Launch Center, People's Republic of China

...

Latest news about this satellite

There are no fresh news available about this satellite. Check back as we update our databases every day.


Newsletter sign-up

Weekly statistics, charts and insights to help you stay on top of the space industry.